Date String (YYYY-MM-DD hh:mm:ss) UTC,Instrument flags,Ambient pressure (hPa),Sample flow (lpm),Bypass flow (lpm),Sample temperature (°C),Ambient temperature (°C),ASC tube jacket temperature (°C),LED temperature (°C),Box temperature (°C),Sample RH (%),Span deviation,Mass concentration (μg/m³),Mass concentration (μg/m³),Mass concentration (μg/m³)
DateTimeUTC,F1_M11,P_M11,Q1_M11,Q2_M11,T1_M11,T2_M11,T3_M11,T4_M11,T5_M11,U1_M11,ZSPAN_M11,X2_M11,X0_M11,X1_M11
2023-03-07 09:00:00,,0824.6,5.01,0.00,22.7,20.8,00.0,31.5,24.3,15.8,0000.0,0007.49,0009.05,0007.38
2023-03-07 09:01:00,,0824.6,5.02,0.00,22.6,20.7,00.0,31.4,24.2,15.8,0000.0,0007.45,0009.00,0007.35
2023-03-07 09:02:00,,0824.6,5.00,0.00,22.6,20.7,00.0,31.4,24.2,15.8,0000.0,0007.42,0008.96,0007.34
2023-03-07 09:03:00,,0824.6,5.02,0.00,22.6,21.1,00.0,31.4,24.2,15.8,0000.0,0007.41,0008.94,0007.32
2023-03-07 09:04:00,,0824.6,5.00,0.00,22.7,22.2,00.0,31.4,24.5,15.7,0000.0,0007.37,0008.91,0007.28
2023-03-07 09:05:00,,0824.6,5.01,0.00,22.8,23.1,00.0,31.4,24.7,15.6,0000.0,0007.35,0008.86,0007.27
2023-03-07 09:06:00,,0824.7,5.02,0.00,22.8,23.0,00.0,31.4,24.7,15.6,0000.0,0007.36,0008.84,0007.29
2023-03-07 09:07:00,,0824.7,5.00,0.00,22.8,22.5,00.0,31.5,24.6,15.6,0000.0,0007.40,0008.87,0007.33
2023-03-07 09:08:00,,0824.6,4.99,0.00,22.8,22.1,00.0,31.5,24.5,15.5,0000.0,0007.45,0008.92,0007.37
2023-03-07 09:09:00,,0824.6,5.00,0.00,22.8,21.8,00.0,31.5,24.5,15.5,0000.0,0007.49,0008.95,0007.42
2023-03-07 09:10:00,,0824.5,5.00,0.00,22.8,21.5,00.0,31.5,24.4,15.5,-000.2,0007.51,0008.97,0007.45
2023-03-07 09:11:00,,0824.5,5.00,0.00,22.7,21.3,00.0,31.5,24.4,15.5,-000.2,0007.56,0009.40,0007.48
2023-03-07 09:12:00,,0824.8,4.99,0.00,22.7,21.2,00.0,31.5,24.3,15.5,-000.2,0007.60,0009.46,0007.51
2023-03-07 09:13:00,,0824.6,4.99,0.00,22.7,21.0,00.0,31.5,24.3,15.5,-000.5,0007.58,0009.50,0007.49
2023-03-07 09:14:00,,0824.6,5.03,0.00,22.7,20.9,00.0,31.5,24.3,15.6,-001.0,0007.56,0009.55,0007.47
2023-03-07 09:15:00,,0824.5,5.00,0.00,22.6,20.8,00.0,31.4,24.2,15.6,-001.1,0007.52,0009.56,0007.42
2023-03-07 09:16:00,,0824.5,4.99,0.00,22.6,20.7,00.0,31.4,24.2,15.6,-001.1,0007.49,0009.56,0007.38
2023-03-07 09:17:00,,0824.6,5.01,0.00,22.6,21.3,00.0,31.4,24.3,15.6,-001.5,0007.45,0009.55,0007.33
2023-03-07 09:18:00,,0824.6,4.95,0.00,22.7,22.4,00.0,31.4,24.6,15.5,-001.2,0007.38,0009.50,0007.27
2023-03-07 09:19:00,,0824.6,5.02,0.00,22.8,23.3,00.0,31.4,24.8,15.4,-000.4,0007.28,0009.39,0007.17
2023-03-07 09:20:00,,0824.5,4.98,0.00,22.9,23.0,00.0,31.5,24.8,15.3,-001.5,0007.18,0009.28,0007.07
2023-03-07 09:21:00,,0824.6,5.01,0.00,22.9,22.5,00.0,31.5,24.7,15.3,-000.6,0007.11,0009.61,0007.02
2023-03-07 09:22:00,,0824.6,4.98,0.00,22.9,22.1,00.0,31.5,24.6,15.3,-001.0,0007.04,0009.60,0006.96
2023-03-07 09:23:00,,0824.6,4.99,0.00,22.8,21.8,00.0,31.5,24.5,15.3,-001.6,0006.99,0009.53,0006.91
2023-03-07 09:24:00,,0824.6,5.00,0.00,22.8,21.5,00.0,31.5,24.4,15.3,-001.3,0006.97,0009.47,0006.89
2023-03-07 09:25:00,,0824.6,4.99,0.00,22.8,21.3,00.0,31.5,24.4,15.3,-001.2,0006.95,0009.40,0006.87
2023-03-07 09:26:00,,0824.7,5.00,0.00,22.7,21.1,00.0,31.5,24.3,15.3,-001.1,0006.93,0009.36,0006.85
2023-03-07 09:27:00,,0824.5,5.00,0.00,22.7,21.0,00.0,31.5,24.3,15.3,-001.0,0006.93,0009.35,0006.85
2023-03-07 09:28:00,,0824.5,5.01,0.00,22.7,20.9,00.0,31.5,24.3,15.4,-000.8,0006.94,0009.36,0006.85
2023-03-07 09:29:00,,0824.4,4.99,0.00,22.7,20.8,00.0,31.5,24.2,15.4,-001.3,0006.93,0009.38,0006.85
2023-03-07 09:30:00,,0824.4,5.00,0.00,22.6,20.7,00.0,31.4,24.1,15.4,-001.5,0006.90,0009.37,0006.82
2023-03-07 09:31:00,,0824.5,5.01,0.00,22.6,20.6,00.0,31.4,24.1,15.4,-001.3,0006.88,0009.36,0006.79
2023-03-07 09:32:00,,0824.5,5.01,0.00,22.6,21.2,00.0,31.4,24.2,15.4,-001.0,0006.85,0008.87,0006.75
2023-03-07 09:33:00,,0824.8,4.97,0.00,22.7,22.4,00.0,31.4,24.5,15.3,-001.0,0006.83,0008.60,0006.74
2023-03-07 09:34:00,,0824.5,4.99,0.00,22.8,23.2,00.0,31.4,24.7,15.3,0000.0,0006.83,0008.73,0006.73
2023-03-07 09:35:00,,0824.4,5.00,0.00,22.8,22.9,00.0,31.5,24.7,15.3,-000.1,0006.83,0008.78,0006.73
2023-03-07 09:36:00,,0824.5,4.98,0.00,22.8,22.4,00.0,31.5,24.6,15.2,0000.0,0006.84,0008.80,0006.74
2023-03-07 09:37:00,,0824.4,5.01,0.00,22.8,22.0,00.0,31.5,24.5,15.3,-000.4,0006.85,0008.86,0006.76
2023-03-07 09:38:00,,0824.4,4.99,0.00,22.8,21.7,00.0,31.5,24.5,15.3,-000.3,0006.86,0008.98,0006.77
2023-03-07 09:39:00,,0824.4,5.01,0.00,22.8,21.5,00.0,31.5,24.4,15.3,-000.0,0006.85,0008.99,0006.76
2023-03-07 09:40:00,,0824.4,4.99,0.00,22.7,21.3,00.0,31.5,24.4,15.3,0000.2,0006.85,0009.00,0006.74
2023-03-07 09:41:00,,0824.4,5.00,0.00,22.7,21.1,00.0,31.5,24.3,15.3,0000.1,0006.86,0009.05,0006.75
2023-03-07 09:42:00,,0824.4,4.99,0.00,22.7,21.0,00.0,31.5,24.3,15.4,0000.2,0006.84,0009.03,0006.73
2023-03-07 09:43:00,,0824.4,5.00,0.00,22.7,20.9,00.0,31.4,24.3,15.4,-000.1,0006.81,0009.02,0006.70
2023-03-07 09:44:00,,0824.6,5.00,0.00,22.6,20.7,00.0,31.4,24.2,15.4,-000.0,0006.75,0008.86,0006.64
2023-03-07 09:45:00,,0824.5,5.00,0.00,22.6,20.6,00.0,31.4,24.2,15.4,-000.6,0006.68,0008.69,0006.56
2023-03-07 09:46:00,,0824.4,5.00,0.00,22.6,20.5,00.0,31.4,24.1,15.4,-000.7,0006.59,0008.54,0006.48
2023-03-07 09:47:00,,0824.4,5.01,0.00,22.5,20.4,00.0,31.4,24.0,15.5,-000.8,0006.53,0008.49,0006.42
2023-03-07 09:48:00,,0824.5,5.00,0.00,22.5,20.5,00.0,31.3,24.1,15.5,-000.7,0006.49,0008.39,0006.37
2023-03-07 09:49:00,,0824.4,5.02,0.00,22.6,21.7,00.0,31.3,24.3,15.5,-000.4,0006.43,0008.22,0006.32
2023-03-07 09:50:00,,0824.4,5.03,0.00,22.7,22.7,00.0,31.3,24.6,15.4,-001.0,0006.37,0008.16,0006.27
2023-03-07 09:51:00,,0824.6,5.00,0.00,22.8,23.0,00.0,31.4,24.7,15.3,-000.5,0006.35,0008.13,0006.25
2023-03-07 09:52:00,,0824.4,5.00,0.00,22.8,22.6,00.0,31.4,24.6,15.3,0000.0,0006.34,0008.13,0006.22
2023-03-07 09:53:00,,0824.6,5.01,0.00,22.8,22.1,00.0,31.4,24.5,15.3,0000.0,0006.34,0008.16,0006.20
2023-03-07 09:54:00,,0824.5,5.00,0.00,22.7,21.7,00.0,31.4,24.4,15.3,0000.0,0006.34,0008.15,0006.20
2023-03-07 09:55:00,,0824.4,5.00,0.00,22.7,21.4,00.0,31.4,24.3,15.3,0000.0,0006.35,0008.16,0006.22
2023-03-07 09:56:00,,0824.4,5.00,0.00,22.7,21.1,00.0,31.4,24.3,15.3,0000.0,0006.37,0008.17,0006.23
2023-03-07 09:57:00,,0824.4,5.00,0.00,22.7,20.9,00.0,31.4,24.2,15.3,0000.0,0006.38,0008.19,0006.24
2023-03-07 09:58:00,,0824.4,5.00,0.00,22.6,20.7,00.0,31.4,24.2,15.4,0000.0,0006.34,0008.14,0006.22
2023-03-07 09:59:00,,0824.4,5.00,0.00,22.6,20.6,00.0,31.4,24.1,15.4,0000.0,0006.31,0008.16,0006.18
